www.pogodaiklimat.ru

Погода и климат >> Архив погоды >> Россия >> Кировская область >> Шабалино


ПОГОДА в Шабалино

  • Прогноз погоды в Шабалино
  • Монитор погоды в Шабалино

АРХИВ ПОГОДЫ в Шабалино

Время (UTC), дата Ветер
(напр.,м/с)
 
Видим.   Явления Облачность Т
(С)
Тd
(С)
f
(%)
Тe
(С)
Тes
(С)
Комфортность P
(гПа)
Po
(гПа)
Тmin
(С)
Tmax
(С)
R
(мм)
R24
(мм)
S
(см)
15 19.03 Ю 3-5
{10}
20 км 10/0
[Ac trans Cs]
+4.7 -1.6 64 +2 +2 1020.1 999.5 +5.3
18 19.03 Ю 4-6
{9}
50 км 10/0
[Ac und]
+2.8 -1.4 74 -2 -2 1020.6 999.8
21 19.03 Ю 2 50 км 10/0
[Ac und]
+2.1 -1.0 80 -1 -1 1020.2 999.4
00 20.03 Ю 3-4
{5}
12 км слаб. снег 10/10 300 м
[Frnb Ns]
+0.7 -0.4 92 -4 -4 1020.1 999.1
03 20.03 ЮЗ 2-3
{5}
9000 м слаб. снег 10/10 300 м
[Frnb Ns]
+0.6 -0.5 92 -3 -3 1019.9 998.9 +0.5 3 51
06 20.03 ЮЗ 2-4
{4}
700 м туман {снег} ?/? +1.2 +1.2 100 -3 -3 1019.9 998.9
09 20.03 ЮЗ 3-5
{5}
20 км 10/10 300 м
[St]
+2.3 +0.7 89 -2 -2 1019.8 999.0
12 20.03 ЮЗ 3-4
{7}
20 км 10/6 300 м
[St Ac und]
+3.1 +1.3 88 -1 -1 1019.1 998.3
15 20.03 Ю 3-4
{5}
20 км 10/4 300 м
[Sc Ac und]
+2.8 +1.0 88 -1 -1 1018.5 997.7 +3.2 0.0
18 20.03 З 3-6
{9}
50 км {дождь} 10/10 300 м
[Sc]
+1.6 -0.3 87 -3 -3 1018.6 997.8
21 20.03 ЮЗ 3-4
{6}
50 км 10/0
[Ac und]
+1.0 -0.7 88 -4 -4 1018.0 997.2
00 21.03 З 2-3
{5}
50 км 10/0
[Ac und]
+0.8 -0.9 88 -3 -3 1017.9 997.1
03 21.03 ЮЗ 2-3
{5}
20 км 10/0
[Ac und]
+0.5 -0.9 90 -3 -3 1017.9 997.1 0.0 0.0 50
06 21.03 ЮЗ 2-4
{6}
20 км 10/9 300 м
[Sc Ac und]
+0.6 -1.4 86 -3 -3 1018.5 997.5
09 21.03 З 2-3
{6}
20 км в посл. час ливневой снег 10/9 300 м
[Sc diur, vesp Ac und]
+3.2 -1.6 71 +1 +1 1018.0 997.3
12 21.03 ЮЗ 3-5
{9}
20 км {ливн. осадки} 10/6 300 м
[Cb cap Ac und]
+3.8 -2.5 63 0 +1 1017.1 996.5
15 21.03 Ю 2-2
{5}
20 км 10/3 300 м
[Cb cap Ac und]
+3.3 -2.7 65 +1 +1 1016.7 996.0 +4.5 0.0
18 21.03 Ю 1-2
{4}
50 км 10/0
[Ac und]
+1.6 -3.2 70 0 0 1016.7 996.0
21 21.03 Ю 1-2
{3}
50 км {ливн. осадки} 10/0
[Ac und]
+0.2 -3.1 78 -2 -2 1015.7 994.9
00 22.03 Ю 2-3
{4}
50 км {ливн. осадки} 10/0
[Ac und]
+0.1 -2.9 80 -3 -3 1014.3 993.5
03 22.03 Ю 3-4
{4}
20 км 10/0
[Ac und]
-0.4 -3.4 80 -5 -5 1012.7 991.9 -0.5 0.0 46
06 22.03 Ю 3-4
{5}
20 км 10/0
[Ac und]
+0.6 -3.4 75 -4 -3 1011.4 990.6
09 22.03 Ю 4-6
{8}
20 км {ливн. осадки} 10/8 600 м
[Sc Ac und]
+2.6 -3.3 65 -2 -2 1010.2 989.6
12 22.03 ЮЗ 3-4
{8}
20 км {ливн. осадки} 10/8 600 м
[Sc Ac und]
+2.9 -3.6 62 -1 -1 1010.2 989.6
15 22.03 Ю 2-3
{5}
20 км {ливн. осадки} 10/6 600 м
[Sc Ac und]
+2.5 -4.2 61 -0 -0 1011.0 990.4 +3.4 0.0
18 22.03 В 2-2
{3}
50 км {ливн. осадки} 9/0
[Ac As]
+1.0 -3.6 71 -2 -2 1013.5 992.7
21 22.03 В 1-2
{3}
50 км 8/0
[Ac trans]
-0.4 -3.4 80 -2 -2 1015.2 994.4
00 23.03 штиль 0
{1}
50 км 6/0
[Ac trans]
-1.2 -4.1 81 -2 -2 1017.3 996.3
03 23.03 штиль 0
{1}
20 км 4/0
[Ac trans Cs]
-4.0 -5.5 89 -5 -5 1019.4 998.2 -4.1 43
06 23.03 В 1-2
{4}
20 км 3/1 600 м
[Sc Ac trans]
+2.3 -4.8 59 +1 +5 1020.9 1000.1 -4.5
09 23.03 В 2-3
{4}
20 км 8/6 600 м
[Cu hum Ci sp]
+5.5 -5.7 44 +4 +6 1021.2 1000.6
12 23.03 СВ 2-3
{6}
20 км 9/5 300 м
[Sc diur, vesp Cc]
+6.0 -8.5 34 +4 +6 1020.6 1000.1
15 23.03 ЮВ 2-2
{4}
20 км 6/3 300 м
[Sc Ac trans]
+3.9 -6.5 47 +2 +2 1020.6 1000.0 +7.6
18 23.03 ЮВ 2-3
{3}
50 км 3/0
[Ac As]
-0.9 -6.6 65 -4 -4 1020.7 999.6
21 23.03 ЮВ 2-2
{3}
50 км ясно -0.8 -6.5 65 -4 -4 1019.6 998.5
00 24.03 Ю 2-4
{4}
50 км 1/0
[Ci fib]
-2.3 -6.3 74 -6 -6 1018.2 997.2
03 24.03 Ю 2-3
{4}
20 км 3/0
[Ci fib]
-3.6 -5.8 85 -8 -8 1016.9 995.7 -3.7 41
06 24.03 Ю 4-8
{8}
20 км 10/0
[Ac und]
-0.5 -3.6 80 -6 -5 1015.7 994.8 -4.2
09 24.03 Ю 4-7
{9}
20 км 9/6 300 м
[Sc Ac As Ci sp]
+2.9 -3.6 62 -1 -0 1013.3 992.6
12 24.03 Ю 5-8
{10}
20 км 10/8 300 м
[Sc Ac und]
+2.8 -3.4 64 -2 -2 1011.5 990.9
15 24.03 Ю 5-9
{9}
19 км слаб. снег 10/3 300 м
[Sc Ac As]
+1.8 -2.3 74 -4 -4 1009.8 989.2 +3.4 0.0
18 24.03 Ю 4-6
{10}
50 км {снег} 10/10 300 м
[Sc]
+1.0 -3.6 71 -4 -4 1009.2 988.4
21 24.03 Ю 4-7
{9}
50 км 10/8 300 м
[Sc Ac und]
+0.8 -2.8 77 -4 -4 1008.3 987.5
00 25.03 ЮВ 3-5
{6}
50 км 10/0
[Cs]
-1.4 -3.1 88 -6 -6 1006.5 985.7
03 25.03 ЮВ 3-4
{5}
20 км 9/0
[Ac As Ci fib]
-1.8 -3.2 90 -7 -7 1004.2 983.4 -2.1 0.0 39
06 25.03 СВ 1-2
{4}
12 км слаб. снег 10/0
[Ac As]
-0.5 -2.6 86 -3 -1 1001.7 981.1 -2.3
09 25.03 С 4-6
{7}
2700 м снег 10/0
[Ac As]
+0.1 -1.3 90 -5 -4 998.4 977.8
12 25.03 СЗ 6-10
{11}
10 км слаб. снег 10/10 300 м
[Frnb Ns]
+0.2 -1.2 90 -6 -6 994.8 974.4
15 25.03 СЗ 5-8
{10}
4200 м слаб. снег 10/10 300 м
[Frnb Ns]
+0.1 -2.2 84 -6 -6 994.6 974.2 +0.3 1
18 25.03 СЗ 2-5
{8}
50 км {снег} 10/10 300 м
[Sc]
-0.5 -2.6 86 -4 -4 995.3 974.8
21 25.03 З 4-8
{9}
50 км 9/3 300 м
[Sc Ac As]
+0.3 -3.5 76 -5 -5 997.0 976.6
00 26.03 З 4-7
{9}
50 км 8/0
[Ac As]
-0.9 -3.4 83 -7 -7 999.9 979.2
03 26.03 З 4-7
{7}
20 км 10/0
[Ac und]
-0.7 -4.2 77 -6 -6 1002.0 981.3 -1.0 0.7 39
06 26.03 З 4-6
{8}
20 км 3/0
[Ac trans Cc]
+0.7 -7.0 56 -4 -2 1003.6 983.7
09 26.03 З 6-6
{9}
20 км 8/6 600 м
[Cu hum Ci fib]
+5.1 -9.7 33 +1 +2 1005.1 984.7
12 26.03 ЮЗ 5-9
{10}
20 км 8/6 600 м
[Cu med, cong Ci fib]
+6.9 -6.8 37 +4 +4 1005.2 985.0

 

Местоположение метеостанции Шабалино (Кировская область, Россия): широта 58.30 долгота 47.12 высота над уровнем моря 166 м.

В архиве по умолчанию представлена погода в Шабалино за последнюю неделю. Архивные данные за месяц целиком и за предыдущие месяцы, начиная с января 2011 года, Вы можете получить, выбрав интересующий диапазон дат из раскрывающегося списка и нажав кнопку "Ввод!".


*Определитесь, кто Вы:
робот инопланетянин человек

Внимание! Время в таблицах - всемирное. Для получения местного времени необходимо прибавить поправку, которая равна 3 ч.

Смотрите также архив погоды в соседних городах и на ближайших метеорологических станциях:

Погода в Котельниче (Кировская область, Россия) (72 км)
Погода в Даровском (Кировская область, Россия) (72 км)
Погода в Вохме (Костромская область, Россия) (73 км)
Погода в Шахунье (Нижегородская область, Россия) (77 км)
Погода в Шарье (Костромская область, Россия) (93 км)
Погода в Ветлуге (Нижегородская область, Россия) (94 км)
Погода в Пыщуге (Костромская область, Россия) (104 км)
Погода в Яранске (Кировская область, Россия) (114 км)
Погода в Мантурово (Костромская область, Россия) (137 км)
Погода в Санчурске (Кировская область, Россия) (147 км)

Пояснения к столбцам:

Ветер - указаны скорость ветра в м/с - средняя за 10 мин, порывы в срок и между сроками (в фигурных скобках) и направление, откуда дует ветер: С - северный, СВ - северо-восточный, В - восточный, ЮВ - юго-восточный, Ю - южный, ЮЗ - юго-западный, З - западный, СЗ - северо-западный.
Видимость - горизонтальная дальность видимости в метрах или километрах. При видимости от 1 до 10 км при отсутствии осадков обычно наблюдается дымка, при ухудшении видимости до 1 км и менее - туман. В сухую погоду видимость может ухудшаться дымом, пылью или мглою.
Явления - указаны атмосферные явления, наблюдавшиеся в срок или в последний час перед сроком; фигурными скобками обозначены явления, наблюдавшиеся между сроками (за 1-3 часа до срока); квадратными скобками обозначены град или гололедные отложения с указанием их диаметра в мм.
Облачность - указаны через наклонную черту общая и нижняя облачность в баллах и высота нижней границы облаков в метрах; квадратными скобками обозначены формы облаков: Ci - перистые, Cs - перисто-слоистые, Cc - перисто-кучевые, Ac - высококучевые, As - высокослоистые, Sc - слоисто-кучевые, Ns - слоисто-дождевые, Cu - кучевые, Cb - кучево-дождевые. Подробнее классификацию облаков см. в Атласе облаков (PDF).
T - Температура воздуха - температура, измеренная на высоте 2 м над землей.
Td - Температура точки росы - температура, при понижении до которой содержащийся в воздухе водяной пар достигнет насыщения.
f - Относительная влажность воздуха - влажноcть воздуха, измеренная на высоте 2 м над землей.
Te - Эффективная температура - температура, которую ощущает одетый по сезону человек в тени. Характеристика душности погоды. При расчете учитывается влияние влажности воздуха и скорости ветра на теплоощущения человека.
Tes - Эффективная температура на солнце - температура, которую ощущает человек, с поправкой на солнечный нагрев. Характеристика знойности погоды. Зависит от высоты солнца над горизонтом, облачности и скорости ветра. Ночью, в пасмурную погоду, а также при ветре 12 м/с и более поправка равна нулю.
P - Атмосферное давление - приведенное к уровню моря атмосферное давление.
Po - Атмосферное давление - измеренное на уровне метеостанции атмосферное давление.
Tmin - Минимальная температура - минимум температуры воздуха на высоте 2 м над землей.
Tmax - Максимальная температура - максимум температуры воздуха на высоте 2 м над землей.
R - Количество осадков - Количество выпавших осадков за период времени, мм. При наведении курсора мыши на число - период времени, за который выпало указанное количество осадков.
R24 - Количество осадков - Количество выпавших осадков за 24 часа, мм.
S - Снежный покров - Высота снежного покрова, см. При наведении курсора мыши на число - состояние снежного покрова и степень покрытия местности в баллах.